FW4559 Weather Reports


time (UTC)temp
C
wind
direction
speed
KPH
gust
KPH
rain 1hr
cm
rain 24hr
cm
rain mn
cm
humidity
%
barometer
mb
20260905035013 18 121 0.0 1.6 0.00 0.00 0.00 94 1014.7
20260905034524 18 121 0.0 3.2 0.00 0.00 0.00 94 1014.7
20260905034014 18 121 0.0 3.2 0.00 0.00 0.00 94 1014.5
20260905033513 18 148 0.0 1.6 0.00 0.00 0.00 94 1014.4
20260905033013 18 173 0.0 0.0 0.00 0.00 0.00 94 1014.5
20260905032516 18 173 0.0 0.0 0.00 0.00 0.00 94 1014.4
20260905032016 18 173 0.0 0.0 0.00 0.00 0.00 93 1014.5
20260905031513 18 173 0.0 1.6 0.00 0.00 0.00 93 1014.3
20260905031011 18 125 0.0 0.0 0.00 0.00 0.00 93 1014.3
20260905030513 18 125 0.0 0.0 0.00 0.00 0.00 93 1014.5
20260905030012 18 125 0.0 0.0 0.00 0.00 0.00 93 1014.3
20260905025512 18 125 0.0 0.0 0.00 0.00 0.00 93 1014.3
20260905025012 18 125 0.0 0.0 0.00 0.00 0.00 93 1014.2
20260905024515 18 125 0.0 0.0 0.00 0.00 0.00 92 1014.1
20260905024011 18 125 0.0 0.0 0.00 0.00 0.00 92 1014.0
20260905023509 19 125 0.0 0.0 0.00 0.00 0.00 92 1013.9
20260905023012 19 125 0.0 0.0 0.00 0.00 0.00 92 1014.0
20260905022508 19 125 0.0 0.0 0.00 0.00 0.00 92 1014.2
20260905022007 19 125 0.0 1.6 0.00 0.00 0.00 91 1014.0
20260905021506 19 125 0.0 1.6 0.00 0.00 0.00 91 1013.9
20260905021008 19 139 0.0 1.6 0.00 0.00 0.00 92 1014.0
20260905020508 19 139 0.0 0.0 0.00 0.00 0.00 92 1014.0
20260905020007 19 139 0.0 0.0 0.00 0.00 0.00 92 1014.0
20260905015506 19 139 0.0 1.6 0.00 0.00 0.00 92 1014.0
20260905015006 20 139 0.0 1.6 0.00 0.00 0.00 91 1014.2
20260905014505 20 139 0.0 1.6 0.00 0.00 0.00 91 1014.4
20260905014005 20 139 0.0 0.0 0.00 0.00 0.00 91 1014.4
20260905013505 20 139 0.0 0.0 0.00 0.00 0.00 90 1014.5
20260905013005 20 139 0.0 1.6 0.00 0.00 0.00 90 1014.5
20260905012505 20 139 0.0 0.0 0.00 0.00 0.00 90 1014.3
20260905012005 20 139 0.0 0.0 0.00 0.00 0.00 90 1014.2
20260905011505 20 139 0.0 0.0 0.00 0.00 0.00 89 1014.2
20260905011006 20 139 0.0 0.0 0.00 0.00 0.00 89 1014.3
20260905010504 20 139 0.0 1.6 0.00 0.00 0.00 88 1014.3
20260905010004 20 139 0.0 1.6 0.00 0.00 0.00 88 1014.4
20260905005503 20 139 0.0 0.0 0.00 0.00 0.00 88 1014.4
20260905005003 21 139 0.0 1.6 0.00 0.00 0.00 88 1014.5
20260905004503 21 139 0.0 1.6 0.00 0.00 0.00 87 1014.4
20260905004003 21 213 0.0 0.0 0.00 0.00 0.00 86 1014.5
20260905003503 21 213 0.0 0.0 0.00 0.00 0.00 86 1014.6
20260905003006 21 213 0.0 0.0 0.00 0.00 0.00 86 1014.5
20260905002502 21 213 0.0 0.0 0.00 0.00 0.00 85 1014.6
20260905002003 21 213 0.0 0.0 0.00 0.00 0.00 85 1014.5
20260905001502 22 213 0.0 0.0 0.00 0.00 0.00 84 1014.5
20260905001002 22 213 0.0 0.0 0.00 0.00 0.00 83 1014.4
20260905000602 22 213 0.0 0.0 0.00 0.00 0.00 83 1014.2
20260905000502 22 213 0.0 0.0 0.00 0.00 0.00 83 1014.2
20260905000001 22 213 0.0 1.6 0.00 0.00 0.00 82 1014.1
20260904235501 22 230 0.0 4.8 0.00 0.00 0.00 82 1014.3
20260904235001 22 233 0.0 4.8 0.00 0.00 0.00 82 1014.4
20260904234500 23 205 1.6 3.2 0.00 0.00 0.00 80 1014.3
20260904234100 23 224 0.0 3.2 0.00 0.00 0.00 79 1014.5
20260904233600 23 154 0.0 0.0 0.00 0.00 0.00 77 1014.4
20260904233100 23 154 0.0 0.0 0.00 0.00 0.00 75 1014.4
20260904232600 23 154 0.0 1.6 0.00 0.00 0.00 75 1014.3
20260904232101 24 153 0.0 1.6 0.00 0.00 0.00 73 1014.3
20260904231600 25 153 0.0 0.0 0.00 0.00 0.00 72 1014.2
20260904231059 25 153 0.0 0.0 0.00 0.00 0.00 72 1014.2
20260904230559 25 153 0.0 0.0 0.00 0.00 0.00 70 1014.2
20260904230128 25 153 0.0 0.0 0.00 0.00 0.00 69 1014.2
20260904225600 25 153 0.0 0.0 0.00 0.00 0.00 70 1014.2
20260904225059 25 153 0.0 1.6 0.00 0.00 0.00 68 1014.1
20260904224603 25 154 0.0 1.6 0.00 0.00 0.00 68 1014.0
20260904224058 25 154 0.0 0.0 0.00 0.00 0.00 66 1014.0
20260904223558 25 154 0.0 1.6 0.00 0.00 0.00 68 1013.9
20260904223105 25 153 0.0 1.6 0.00 0.00 0.00 68 1014.0
20260904222558 25 334 0.0 3.2 0.00 0.00 0.00 67 1014.2
20260904222058 26 334 0.0 3.2 0.00 0.00 0.00 64 1014.3
20260904221558 26 52 0.0 3.2 0.00 0.00 0.00 66 1014.2
20260904221057 26 158 0.0 3.2 0.00 0.00 0.00 65 1014.2
20260904220557 26 328 0.0 3.2 0.00 0.00 0.00 64 1014.2
20260904220057 26 240 0.0 8.0 0.00 0.00 0.00 65 1014.2
20260904215557 26 242 0.0 9.7 0.00 0.00 0.00 64 1014.3
20260904215056 27 301 1.6 9.7 0.00 0.00 0.00 61 1014.1
20260904214559 27 44 1.6 6.4 0.00 0.00 0.00 62 1014.2
20260904214056 28 146 0.0 8.0 0.00 0.00 0.00 65 1014.1
20260904213556 28 340 3.2 8.0 0.00 0.00 0.00 65 1014.1
20260904213056 28 108 0.0 3.2 0.00 0.00 0.00 65 1013.7
20260904212556 28 128 0.0 1.6 0.00 0.00 0.00 67 1013.6
20260904212055 27 109 0.0 1.6 0.00 0.00 0.00 68 1013.5
20260904211555 27 194 0.0 6.4 0.00 0.00 0.00 68 1013.6
20260904211054 27 216 0.0 6.4 0.00 0.00 0.00 69 1013.7
20260904210554 27 155 1.6 6.4 0.00 0.00 0.00 68 1013.8
20260904210054 27 180 1.6 4.8 0.00 0.00 0.00 68 1013.9
20260904205554 27 166 0.0 3.2 0.00 0.00 0.00 68 1013.8
20260904205053 27 157 0.0 3.2 0.00 0.00 0.00 69 1013.7
20260904204553 26 210 0.0 4.8 0.00 0.00 0.00 71 1013.9
20260904204053 26 92 0.0 4.8 0.00 0.00 0.00 70 1013.7
20260904203553 26 112 0.0 8.0 0.00 0.00 0.00 68 1013.7
20260904203056 26 106 1.6 11.3 0.00 0.00 0.00 67 1013.6
20260904202554 27 115 1.6 6.4 0.00 0.00 0.00 65 1013.9
20260904202056 27 105 1.6 8.0 0.00 0.00 0.00 63 1013.8
20260904201552 28 70 3.2 14.5 0.00 0.00 0.00 61 1013.9
20260904201056 29 25 4.8 14.5 0.00 0.00 0.00 59 1014.0
20260904200551 30 2 1.6 6.4 0.00 0.00 0.00 56 1014.0
20260904200051 31 169 1.6 9.7 0.00 0.00 0.00 57 1013.8
20260904195551 31 151 3.2 9.7 0.00 0.00 0.00 54 1013.5
20260904195051 31 139 1.6 8.0 0.00 0.00 0.00 57 1013.5
20260904194550 31 245 1.6 9.7 0.00 0.00 0.00 57 1013.7
20260904194050 31 147 4.8 9.7 0.00 0.00 0.00 55 1013.7
20260904193551 32 226 3.2 12.9 0.00 0.00 0.00 54 1013.6
20260904193050 32 248 3.2 12.9 0.00 0.00 0.00 52 1013.6
20260904192549 33 52 0.0 4.8 0.00 0.00 0.00 53 1013.6
20260904192048 33 333 0.0 4.8 0.00 0.00 0.00 52 1013.7
20260904191545 33 102 0.0 4.8 0.00 0.00 0.00 56 1014.0
20260904191046 32 221 0.0 6.4 0.00 0.00 0.00 54 1014.2
20260904190544 32 219 1.6 12.9 0.00 0.00 0.00 52 1014.3
20260904190043 32 161 4.8 12.9 0.00 0.00 0.00 55 1014.5
20260904185543 33 211 1.6 9.7 0.00 0.00 0.00 50 1014.5
20260904185041 33 149 1.6 12.9 0.00 0.00 0.00 49 1014.5
20260904184541 32 148 3.2 12.9 0.00 0.00 0.00 48 1014.5
20260904184040 32 131 3.2 9.7 0.00 0.00 0.00 48 1014.5
20260904183538 32 229 3.2 8.0 0.00 0.00 0.00 50 1014.7
20260904183037 32 126 0.0 6.4 0.00 0.00 0.00 49 1014.9
20260904182536 32 216 0.0 6.4 0.00 0.00 0.00 51 1015.0
20260904182036 31 215 1.6 8.0 0.00 0.00 0.00 54 1015.0
20260904181535 31 133 3.2 8.0 0.00 0.00 0.00 53 1015.1
20260904181034 31 224 3.2 8.0 0.00 0.00 0.00 53 1015.2
20260904180536 31 181 1.6 8.0 0.00 0.00 0.00 55 1015.3
20260904180033 31 213 0.0 4.8 0.00 0.00 0.00 55 1015.2
20260904175533 31 212 0.0 1.6 0.00 0.00 0.00 56 1015.3
20260904175033 30 212 0.0 1.6 0.00 0.00 0.00 57 1015.5
20260904174533 30 212 0.0 1.6 0.00 0.00 0.00 58 1015.5
20260904174032 30 212 0.0 1.6 0.00 0.00 0.00 55 1015.6
20260904173532 30 212 0.0 1.6 0.00 0.00 0.00 56 1015.7
20260904173032 30 352 0.0 4.8 0.00 0.00 0.00 56 1015.6
20260904172532 30 352 0.0 9.7 0.00 0.00 0.00 54 1015.6
20260904172032 32 352 4.8 9.7 0.00 0.00 0.00 48 1015.7
20260904171531 32 165 1.6 4.8 0.00 0.00 0.00 52 1015.7
20260904171029 32 89 1.6 4.8 0.00 0.00 0.00 49 1015.8
20260904170528 32 196 0.0 1.6 0.00 0.00 0.00 50 1015.8
20260904170027 32 311 0.0 1.6 0.00 0.00 0.00 53 1015.7
20260904165525 31 243 0.0 3.2 0.00 0.00 0.00 56 1015.9
20260904165023 31 341 0.0 3.2 0.00 0.00 0.00 56 1015.9
20260904164523 30 50 0.0 6.4 0.00 0.00 0.00 59 1016.0
20260904164022 30 353 0.0 6.4 0.00 0.00 0.00 58 1016.2
20260904163521 30 97 1.6 6.4 0.00 0.00 0.00 58 1016.2
20260904163022 29 79 0.0 9.7 0.00 0.00 0.00 62 1016.3
20260904162521 28 32 0.0 12.9 0.00 0.00 0.00 60 1016.3
20260904162020 28 11 1.6 9.7 0.00 0.00 0.00 60 1016.3
20260904161519 28 305 4.8 11.3 0.00 0.00 0.00 59 1016.3
20260904161019 28 349 1.6 12.9 0.00 0.00 0.00 62 1016.3
20260904160519 28 357 1.6 11.3 0.00 0.00 0.00 63 1016.4
20260904160018 28 352 1.6 12.9 0.00 0.00 0.00 62 1016.4
20260904155517 28 331 1.6 14.5 0.00 0.00 0.00 64 1016.5
20260904155017 28 356 8.0 14.5 0.00 0.00 0.00 61 1016.5
20260904154518 28 22 1.6 16.1 0.00 0.00 0.00 64 1016.5
20260904154020 28 347 3.2 16.1 0.00 0.00 0.00 63 1016.5
20260904153517 27 70 1.6 14.5 0.00 0.00 0.00 64 1016.4
20260904153017 27 327 4.8 14.5 0.00 0.00 0.00 63 1016.4
20260904152516 28 11 4.8 12.9 0.00 0.00 0.00 62 1016.4
20260904152016 28 323 4.8 12.9 0.00 0.00 0.00 62 1016.4
20260904151517 28 99 4.8 12.9 0.00 0.00 0.00 61 1016.5
20260904151015 28 28 0.0 6.4 0.00 0.00 0.00 63 1016.4
20260904150515 28 57 1.6 6.4 0.00 0.00 0.00 63 1016.4
20260904150024 28 3 0.0 6.4 0.00 0.00 0.00 64 1016.5
20260904145515 29 353 0.0 6.4 0.00 0.00 0.00 62 1016.4
20260904145014 30 21 1.6 4.8 0.00 0.00 0.00 62 1016.4
20260904144513 30 308 0.0 1.6 0.00 0.00 0.00 62 1016.5
20260904144013 30 324 0.0 0.0 0.00 0.00 0.00 62 1016.4
20260904143513 30 324 0.0 3.2 0.00 0.00 0.00 63 1016.5
20260904143012 30 325 0.0 1.6 0.00 0.00 0.00 64 1016.5
20260904142511 29 219 0.0 0.0 0.00 0.00 0.00 67 1016.6
20260904142010 28 219 0.0 0.0 0.00 0.00 0.00 68 1016.5
20260904141507 28 219 0.0 0.0 0.00 0.00 0.00 69 1016.6
20260904141006 28 219 0.0 0.0 0.00 0.00 0.00 69 1016.6
20260904140505 28 219 0.0 0.0 0.00 0.00 0.00 72 1016.5
20260904140005 27 219 0.0 0.0 0.00 0.00 0.00 73 1016.6
20260904135503 27 219 0.0 0.0 0.00 0.00 0.00 75 1016.5
20260904135002 26 219 0.0 0.0 0.00 0.00 0.00 77 1016.5
20260904134600 26 219 0.0 0.0 0.00 0.00 0.00 78 1016.5
20260904134101 26 219 0.0 0.0 0.00 0.00 0.00 80 1016.5
20260904133557 25 219 0.0 0.0 0.00 0.00 0.00 80 1016.5
20260904133101 25 219 0.0 0.0 0.00 0.00 0.00 83 1016.4
20260904132554 24 219 0.0 0.0 0.00 0.00 0.00 84 1016.5
20260904132055 24 219 0.0 0.0 0.00 0.00 0.00 86 1016.5
20260904131551 23 219 0.0 0.0 0.00 0.00 0.00 89 1016.5
20260904131049 23 219 0.0 0.0 0.00 0.00 0.00 91 1016.6
20260904130548 22 219 0.0 0.0 0.00 0.00 0.00 93 1016.8
20260904130100 21 219 0.0 0.0 0.00 0.00 0.00 94 1016.8
20260904125549 21 219 0.0 0.0 0.00 0.00 0.00 96 1016.8
20260904125048 21 219 0.0 0.0 0.00 0.00 0.00 96 1016.8
20260904124547 21 219 0.0 0.0 0.00 0.00 0.00 96 1016.9
20260904124044 20 219 0.0 0.0 0.00 0.00 0.00 96 1016.9
20260904123542 19 219 0.0 0.0 0.00 0.00 0.00 96 1016.9
20260904123040 18 219 0.0 0.0 0.00 0.00 0.00 96 1016.8
20260904122540 17 219 0.0 0.0 0.00 0.00 0.00 96 1016.7
20260904122039 17 219 0.0 0.0 0.00 0.00 0.00 96 1016.6
20260904121539 17 219 0.0 0.0 0.00 0.00 0.00 96 1016.7
20260904121041 17 219 0.0 0.0 0.00 0.00 0.00 96 1016.6
20260904120537 16 219 0.0 0.0 0.00 0.00 0.00 96 1016.6
20260904120047 16 219 0.0 0.0 0.00 0.00 0.00 96 1016.6
20260904115537 16 219 0.0 0.0 0.00 0.00 0.00 96 1016.6
20260904115037 16 219 0.0 0.0 0.00 0.00 0.00 96 1016.5
20260904114538 16 219 0.0 0.0 0.00 0.00 0.00 96 1016.6
20260904114036 16 219 0.0 0.0 0.00 0.00 0.00 96 1016.5
20260904113541 16 219 0.0 0.0 0.00 0.00 0.00 96 1016.5
20260904113038 16 219 0.0 0.0 0.00 0.00 0.00 96 1016.4
20260904112535 16 219 0.0 0.0 0.00 0.00 0.00 96 1016.4
20260904112035 16 219 0.0 0.0 0.00 0.00 0.00 96 1016.4
20260904111535 16 219 0.0 0.0 0.00 0.00 0.00 96 1016.4
20260904111035 16 219 0.0 0.0 0.00 0.00 0.00 96 1016.4
20260904110535 16 219 0.0 0.0 0.00 0.00 0.00 96 1016.3
20260904110034 16 219 0.0 0.0 0.00 0.00 0.00 96 1016.2
20260904105533 16 219 0.0 0.0 0.00 0.00 0.00 96 1016.3
20260904105033 16 219 0.0 0.0 0.00 0.00 0.00 96 1016.2
20260904104532 16 219 0.0 0.0 0.00 0.00 0.00 96 1016.2
20260904104031 16 219 0.0 0.0 0.00 0.00 0.00 96 1016.0
20260904103531 16 219 0.0 0.0 0.00 0.00 0.00 96 1016.1
20260904103032 16 219 0.0 0.0 0.00 0.00 0.00 96 1016.0
20260904102531 16 219 0.0 0.0 0.00 0.00 0.00 96 1015.9
20260904102033 16 219 0.0 0.0 0.00 0.00 0.00 96 1016.1
20260904101531 16 219 0.0 0.0 0.00 0.00 0.00 96 1015.9
20260904101029 16 219 0.0 0.0 0.00 0.00 0.00 96 1016.0
20260904100532 16 219 0.0 0.0 0.00 0.00 0.00 96 1015.9
20260904100033 16 219 0.0 0.0 0.00 0.00 0.00 96 1015.9
20260904095531 16 219 0.0 0.0 0.00 0.00 0.00 96 1015.9
20260904095028 17 219 0.0 0.0 0.00 0.00 0.00 96 1015.8
20260904094528 17 219 0.0 0.0 0.00 0.00 0.00 96 1016.0
20260904094027 17 219 0.0 0.0 0.00 0.00 0.00 96 1016.0
20260904093527 17 219 0.0 0.0 0.00 0.00 0.00 96 1015.8
20260904093027 17 219 0.0 0.0 0.00 0.00 0.00 96 1015.8
20260904092526 17 219 0.0 0.0 0.00 0.00 0.00 96 1015.8
20260904092029 17 219 0.0 0.0 0.00 0.00 0.00 96 1015.7
20260904091526 17 219 0.0 0.0 0.00 0.00 0.00 96 1015.8
20260904091025 17 219 0.0 0.0 0.00 0.00 0.00 96 1015.7
20260904090525 17 219 0.0 0.0 0.00 0.00 0.00 96 1015.5
20260904090031 17 219 0.0 0.0 0.00 0.00 0.00 96 1015.5
20260904085525 17 219 0.0 0.0 0.00 0.00 0.00 96 1015.4
20260904085125 17 219 0.0 0.0 0.00 0.00 0.00 96 1015.5
20260904084525 17 219 0.0 0.0 0.00 0.00 0.00 96 1015.3
20260904084026 17 219 0.0 0.0 0.00 0.00 0.00 96 1015.4
20260904083524 17 219 0.0 0.0 0.00 0.00 0.00 96 1015.3
20260904083032 17 219 0.0 0.0 0.00 0.00 0.00 96 1015.3
20260904082523 17 219 0.0 0.0 0.00 0.00 0.00 96 1015.2
20260904082023 17 219 0.0 0.0 0.00 0.00 0.00 96 1015.4
20260904081522 17 219 0.0 0.0 0.00 0.00 0.00 96 1015.3
20260904081021 17 219 0.0 0.0 0.00 0.00 0.00 96 1015.3
20260904080520 17 219 0.0 0.0 0.00 0.00 0.00 96 1015.3
20260904080020 17 219 0.0 0.0 0.00 0.00 0.00 96 1015.4
20260904075520 17 219 0.0 0.0 0.00 0.00 0.00 96 1015.4
20260904075019 17 219 0.0 0.0 0.00 0.00 0.00 96 1015.4
20260904074520 17 219 0.0 0.0 0.00 0.00 0.00 96 1015.5
20260904074020 17 219 0.0 1.6 0.00 0.00 0.00 96 1015.5
20260904073523 17 219 0.0 1.6 0.00 0.00 0.00 96 1015.5
20260904073019 17 219 0.0 0.0 0.00 0.00 0.00 96 1015.5
20260904072519 17 219 0.0 0.0 0.00 0.00 0.00 96 1015.6
20260904072019 17 219 0.0 0.0 0.00 0.00 0.00 96 1015.6
20260904071522 17 219 0.0 0.0 0.00 0.00 0.00 96 1015.5
20260904071021 17 219 0.0 0.0 0.00 0.00 0.00 96 1015.6
20260904070519 17 219 0.0 0.0 0.00 0.00 0.00 96 1015.7
20260904070019 17 219 0.0 0.0 0.00 0.00 0.00 96 1015.8
20260904065516 17 219 0.0 0.0 0.00 0.00 0.00 96 1015.8
20260904065014 17 219 0.0 0.0 0.00 0.00 0.00 96 1015.9
20260904064514 18 219 0.0 0.0 0.00 0.00 0.00 96 1016.1
20260904064013 18 219 0.0 0.0 0.00 0.00 0.00 96 1016.1
20260904063513 18 219 0.0 0.0 0.00 0.00 0.00 96 1016.1
20260904063012 18 219 0.0 0.0 0.00 0.00 0.00 96 1016.2
20260904062511 18 219 0.0 0.0 0.00 0.00 0.00 96 1016.2
20260904062015 18 219 0.0 0.0 0.00 0.00 0.00 96 1016.3
20260904061527 18 219 0.0 0.0 0.00 0.00 0.00 96 1016.4
20260904061011 18 219 0.0 0.0 0.00 0.00 0.00 96 1016.4
20260904060510 18 219 0.0 0.0 0.00 0.00 0.00 96 1016.4
20260904060010 18 219 0.0 0.0 0.00 0.00 0.00 96 1016.4
20260904055509 18 219 0.0 0.0 0.00 0.00 0.00 96 1016.5
20260904055009 18 219 0.0 0.0 0.00 0.00 0.00 96 1016.5
20260904054518 18 219 0.0 0.0 0.00 0.00 0.00 96 1016.5
20260904054008 18 219 0.0 0.0 0.00 0.00 0.00 96 1016.5
20260904053507 18 219 0.0 0.0 0.00 0.00 0.00 96 1016.5
20260904053007 18 219 0.0 0.0 0.00 0.00 0.00 96 1016.6
20260904052507 18 219 0.0 0.0 0.00 0.00 0.00 95 1016.6
20260904052007 18 219 0.0 0.0 0.00 0.00 0.00 96 1016.7
20260904051505 18 219 0.0 1.6 0.00 0.00 0.00 96 1016.9
20260904051006 18 219 0.0 3.2 0.00 0.00 0.00 96 1016.8
20260904050503 18 229 1.6 3.2 0.00 0.00 0.00 95 1016.8
20260904050002 18 205 0.0 0.0 0.00 0.00 0.00 95 1016.9
20260904045503 18 205 0.0 0.0 0.00 0.00 0.00 95 1016.9
20260904045004 18 205 0.0 0.0 0.00 0.00 0.00 95 1017.0
20260904044505 18 205 0.0 0.0 0.00 0.00 0.00 95 1017.0
20260904044002 18 205 0.0 0.0 0.00 0.00 0.00 95 1017.0
20260904043501 18 205 0.0 0.0 0.00 0.00 0.00 95 1017.0
20260904043108 18 205 0.0 0.0 0.00 0.00 0.00 95 1017.0
20260904042559 18 205 0.0 0.0 0.00 0.00 0.00 95 1017.0
20260904042059 19 205 0.0 0.0 0.00 0.00 0.00 95 1016.9
20260904041556 19 205 0.0 0.0 0.00 0.00 0.00 95 1017.0
20260904041057 19 205 0.0 0.0 0.00 0.00 0.00 95 1016.9
20260904040557 19 205 0.0 0.0 0.00 0.00 0.00 95 1016.8
20260904040055 19 205 0.0 0.0 0.00 0.00 0.00 95 1016.8
20260904035555 19 205 0.0 0.0 0.00 0.00 0.00 95 1016.9